Find Starlink 5037

NORAD ID: 53896 Int'l Des: 2022-119 Owner: SPXS Country: US Constellation: starlink operational
LEOCIRCULAR

リアルタイム位置

3D地球を読み込み中...

Starlink 5037について

説明を読み込み中...

次回通過

Passes for default location (London). Set your location on the main map for personalized predictions.

高度履歴

Loading altitude history...

軌道要素

1 53896U 22119L 26121.13034648 -.00001466 00000-0 -74063-4 0 9990
2 53896 53.2179 88.5444 0001343 98.1359 261.9785 15.08840298199607
Epoch: May 1, 2026 • Age: 12 hours

現在のステータス

高度 540.2 km
速度 7.60 km/s
衛星直下点 25.88°N, 162.06°E
打ち上げ日 Sep 24, 2022
運用期間 3.5 years
タイプ internet

技術仕様

分類 Payload
質量 305.00 kg
乾燥質量 290.00 kg
総質量 305.00 kg
長さ 0.20 m
直径 2.80 m
スパン 9.00 m
形状 Box + pan
製造者 SPXS
バスタイプ Starlink
フェーズステータス In Orbit
所有者/国 SPXS/US

Most Searched